Wind_Speed
28 28 27 27 28 28 26 24 21 23 24 23 21 22 25 26 28 29 30 29 29 32 35 38 41 42 42 43 43 41 40 39 38 38 40 43 45 48 51 54 56 59 63
27 28 27 27 27 27 27 25 23 23 24 23 23 25 27 27 28 27 27 28 30 34 38 42 43 43 43 42 39 37 37 39 41 42 44 45 47 51 55 58 61 64 66
27 27 27 27 28 28 28 27 25 24 26 26 27 28 28 27 27 27 29 32 35 39 42 43 42 42 40 37 37 38 40 43 46 48 50 52 53 54 56 60 64 66 67
26 25 26 27 27 28 28 28 27 27 27 29 30 30 29 28 28 30 33 36 38 40 41 41 40 39 38 39 40 42 44 46 49 53 58 61 65 67 66 63 63 64 66
26 25 26 27 27 28 28 28 29 29 30 32 32 30 29 30 31 34 37 39 40 40 40 39 39 39 40 41 44 46 48 51 54 57 60 64 68 72 74 73 69 66 66
26 25 25 26 28 29 29 29 29 29 30 32 31 30 31 32 34 37 39 40 40 39 38 39 39 40 41 43 46 49 52 56 59 62 64 66 68 68 70 72 73 73 72
26 25 25 27 29 30 30 29 29 29 30 30 31 31 33 35 37 38 38 38 38 38 38 39 40 42 43 46 49 52 56 59 62 65 67 68 68 69 70 72 75 77 79
27 26 26 28 30 30 31 29 29 29 29 30 31 33 35 37 38 38 37 37 37 38 39 41 43 45 47 50 53 57 60 63 65 66 66 66 66 69 73 78 82 84 85
26 26 27 29 29 29 30 29 30 29 29 31 33 35 36 36 37 37 37 37 38 39 41 43 45 48 51 54 58 62 64 65 65 65 65 67 70 74 79 84 90 95 96
25 25 26 28 28 29 29 29 29 29 30 32 34 35 34 35 36 36 37 38 40 42 44 46 48 51 55 59 63 65 66 65 65 66 68 71 76 80 85 90 96 102 107
23 24 26 26 27 28 27 28 29 30 31 33 34 33 33 34 35 36 38 40 42 45 47 50 52 56 60 64 66 67 65 64 66 69 73 78 82 87 92 98 103 108 114
23 24 24 24 25 25 27 28 29 30 32 32 32 32 33 33 35 38 40 43 46 48 50 53 56 60 64 67 67 65 64 66 69 74 79 84 89 94 100 106 111 116 119
20 20 20 21 22 24 26 27 28 29 31 31 32 32 33 35 38 41 43 46 48 51 53 57 61 65 67 67 65 64 66 70 75 81 87 92 98 103 109 115 118 120 116
17 18 19 20 22 23 24 26 27 29 30 31 31 32 35 38 41 43 46 49 51 53 56 61 65 68 68 66 64 66 70 76 82 88 94 100 106 112 117 119 119 113 102
14 15 17 18 19 21 23 25 27 28 29 30 32 35 38 41 44 46 48 51 53 56 61 65 68 69 67 65 66 70 76 82 88 94 101 107 113 118 119 116 108 99 90
11 12 14 16 18 20 23 25 27 28 29 31 35 38 41 43 45 47 49 52 56 61 65 68 68 66 65 66 70 76 82 88 94 100 107 113 117 116 110 102 95 90 86
12 13 15 17 19 21 23 25 26 28 31 34 37 40 43 45 47 49 51 55 60 64 67 67 65 65 67 70 76 82 87 94 101 107 113 116 113 106 98 91 87 83 77
17 18 18 19 20 22 23 25 27 30 33 37 40 43 46 47 48 50 54 58 62 65 65 63 63 66 71 76 81 86 93 99 106 112 114 110 102 93 88 85 80 72 63
17 17 18 19 20 22 24 26 29 32 36 39 42 44 46 47 50 54 57 60 63 62 60 62 65 70 75 80 86 91 97 104 109 110 106 98 91 85 80 76 68 57 46
15 17 18 19 21 23 26 29 31 34 37 39 41 42 45 49 53 56 58 59 58 57 60 64 69 74 79 85 91 98 103 107 107 101 92 86 81 76 70 63 52 40 31
17 18 19 20 23 25 28 30 33 36 38 40 42 45 49 52 54 56 56 55 55 58 62 66 72 79 85 91 97 103 107 106 100 90 82 76 72 64 56 46 37 29 24
18 19 20 23 25 28 31 33 35 37 39 42 45 47 50 52 53 53 52 54 57 61 65 69 76 83 90 95 101 105 103 97 89 81 74 68 60 49 40 33 28 25 23
20 22 24 27 28 30 31 34 36 39 41 44 45 48 50 51 50 51 53 57 60 64 68 74 81 87 93 100 104 102 94 85 78 71 64 56 46 35 29 25 24 23 21
23 25 26 27 28 30 33 35 37 39 41 43 46 48 48 48 50 52 56 59 63 68 74 80 86 92 98 102 101 94 83 75 68 59 51 42 34 28 25 25 23 21 19
19 21 24 26 29 31 33 35 36 38 41 44 45 46 46 48 51 54 58 63 68 75 81 86 91 96 99 99 95 83 74 65 57 47 39 32 27 27 28 25 22 20 20
19 22 25 27 29 31 33 35 37 40 42 43 44 45 47 49 53 56 62 68 75 81 86 91 95 98 97 91 81 72 64 55 46 38 30 26 25 25 22 20 20 20 21
Wind_Direction
239 241 243 241 240 244 249 255 252 240 244 255 263 268 273 281 289 292 294 292 289 290 294 297 298 298 299 299 297 295 293 291 290 290 290 291 291 292 292 292 292 292 292
236 237 239 242 243 245 249 253 254 247 248 255 262 267 274 284 291 292 293 294 294 295 297 298 298 299 300 299 298 296 295 294 292 292 292 292 294 295 296 296 295 294 294
233 236 237 242 244 245 248 252 256 255 252 254 259 266 276 286 293 295 296 298 298 298 298 299 300 301 300 300 298 297 297 297 297 297 297 296 295 293 294 294 294 293 293
229 233 236 240 242 243 247 251 254 256 254 255 260 266 276 285 291 295 296 297 297 297 298 299 300 299 299 299 300 300 300 300 300 300 300 300 300 298 296 295 295 294 293
224 230 236 239 239 241 246 249 252 255 256 257 260 266 275 282 289 293 294 295 296 296 297 298 298 299 301 302 303 303 302 301 300 300 300 300 300 300 300 299 297 297 296
224 231 238 241 239 240 244 248 251 254 255 256 260 266 273 281 287 291 293 294 294 295 296 297 298 299 301 302 302 302 301 301 301 301 301 301 301 300 300 300 300 300 300
225 232 239 242 240 240 243 247 250 252 254 257 262 268 275 281 286 288 290 292 292 294 295 296 298 299 301 301 301 300 301 302 303 303 303 303 303 303 303 302 302 301 302
223 231 237 241 241 240 244 248 252 255 258 262 267 271 276 281 285 287 290 291 291 293 296 297 299 300 300 301 301 301 303 304 304 304 304 303 303 303 303 303 303 303 303
223 231 237 240 241 241 244 249 252 256 260 264 269 273 279 283 286 289 290 291 293 295 296 297 299 300 301 301 302 303 304 305 305 305 304 303 303 303 304 304 305 305 304
225 232 236 237 238 240 244 248 253 257 261 265 270 276 280 283 286 288 290 292 293 294 296 298 299 300 301 302 304 305 306 306 306 305 305 305 305 306 306 306 306 306 304
222 228 230 231 235 239 244 249 254 259 262 267 273 278 280 283 285 288 291 293 294 295 297 298 299 301 303 304 306 307 307 307 307 307 307 308 308 309 308 307 307 306 305
221 225 227 230 235 240 244 249 255 259 264 270 275 278 281 283 286 290 292 294 294 295 296 298 300 303 305 307 307 308 307 307 308 309 310 310 310 310 309 308 307 307 306
224 230 233 236 240 243 247 252 257 261 267 272 276 279 281 286 289 292 293 293 294 295 297 300 303 305 307 307 307 307 307 308 310 311 311 312 312 311 310 309 309 308 308
225 232 238 242 245 249 253 257 260 264 269 273 277 281 284 288 291 292 292 292 294 297 300 302 305 307 307 307 307 307 308 310 311 312 313 313 313 312 311 310 310 309 307
221 230 237 242 247 252 255 260 265 269 272 276 280 283 287 290 292 291 292 294 297 300 302 305 307 307 307 307 307 308 310 311 312 314 314 314 313 313 313 312 310 308 306
224 235 243 249 254 258 260 264 269 273 275 279 283 287 290 291 291 292 294 297 299 302 304 306 307 307 307 308 308 309 311 312 314 314 314 315 315 314 313 311 309 308 306
246 255 262 265 264 264 266 268 270 274 279 284 287 288 289 290 291 292 296 299 302 304 306 307 308 308 309 310 310 311 312 314 315 315 316 316 316 314 313 311 309 307 305
254 261 264 264 263 264 267 271 276 281 284 286 287 288 290 292 294 297 299 302 304 306 307 307 309 310 311 311 312 313 315 315 316 317 318 317 316 315 313 312 312 311 309
252 257 261 264 266 270 274 278 281 283 285 287 289 291 293 296 298 300 302 304 306 307 308 310 312 312 312 313 315 316 317 318 319 320 319 318 317 316 316 316 317 316 314
258 264 268 270 273 276 279 281 283 285 287 290 292 293 295 297 299 301 304 305 307 308 310 312 312 313 315 316 318 318 319 320 321 320 319 318 317 318 318 319 321 324 323
265 269 272 276 278 280 281 282 284 286 288 290 292 294 297 299 302 304 305 306 308 310 311 313 314 316 318 319 320 321 322 322 322 321 320 319 319 319 319 323 327 331 333
270 274 277 280 282 283 283 284 286 288 290 292 294 297 300 302 303 304 305 307 309 311 312 314 316 318 319 320 321 323 323 323 323 323 322 321 322 322 324 328 332 335 337
273 276 280 283 285 286 287 288 289 291 293 296 298 300 302 303 304 306 308 310 311 312 314 315 317 318 319 321 323 324 324 323 323 323 323 324 326 327 329 332 335 338 341
277 279 282 284 285 287 289 291 293 295 297 298 300 302 303 305 307 309 310 312 313 314 316 317 318 320 321 322 324 324 323 323 323 324 325 327 329 332 335 337 341 347 352
284 286 286 287 289 291 292 294 295 297 298 300 302 303 305 308 309 311 313 315 316 317 318 319 320 321 322 323 324 324 323 324 324 325 326 328 330 333 335 339 346 350 351
290 291 291 291 291 293 295 296 298 300 302 303 305 306 308 309 311 313 316 317 318 319 320 321 322 323 324 325 324 324 324 324 325 327 327 328 329 331 336 341 343 343 342
Height
5754 5757 5761 5764 5766 5768 5770 5772 5774 5775 5776 5777 5778 5779 5779 5778 5776 5774 5772 5769 5767 5765 5763 5760 5757 5754 5750 5746 5742 5738 5734 5731 5729 5726 5723 5718 5714 5711 5705 5701 5696 5691 5685
5747 5750 5754 5757 5759 5761 5762 5765 5767 5769 5770 5771 5772 5773 5773 5771 5769 5767 5765 5763 5761 5758 5755 5752 5748 5744 5740 5736 5732 5728 5725 5721 5719 5717 5714 5711 5707 5700 5694 5688 5681 5676 5670
5739 5744 5748 5751 5753 5754 5756 5758 5760 5761 5763 5764 5766 5766 5766 5764 5762 5761 5759 5756 5754 5750 5747 5743 5739 5734 5730 5726 5723 5720 5716 5712 5707 5703 5699 5696 5693 5692 5688 5680 5670 5663 5656
5732 5737 5741 5744 5746 5748 5750 5752 5753 5755 5756 5758 5759 5759 5758 5756 5755 5753 5751 5749 5746 5742 5738 5733 5729 5725 5721 5717 5713 5710 5706 5702 5696 5690 5684 5678 5672 5667 5667 5666 5657 5648 5640
5725 5730 5734 5737 5740 5741 5743 5746 5747 5748 5750 5751 5751 5751 5750 5749 5747 5745 5743 5740 5736 5733 5729 5724 5720 5716 5712 5708 5703 5699 5694 5690 5684 5679 5673 5665 5656 5647 5640 5639 5636 5630 5622
5719 5723 5727 5730 5733 5735 5737 5739 5741 5742 5743 5744 5744 5743 5742 5741 5739 5737 5734 5730 5727 5723 5719 5715 5711 5707 5703 5698 5693 5688 5683 5677 5670 5663 5656 5649 5641 5633 5624 5618 5613 5607 5601
5713 5717 5720 5723 5726 5728 5730 5733 5734 5735 5736 5737 5736 5736 5734 5733 5731 5729 5725 5722 5718 5714 5710 5706 5702 5698 5693 5688 5683 5677 5670 5663 5655 5647 5639 5630 5621 5613 5605 5598 5592 5587 5580
5706 5710 5714 5717 5719 5721 5723 5725 5727 5728 5729 5729 5729 5728 5726 5725 5722 5720 5717 5713 5710 5706 5701 5697 5693 5688 5683 5677 5671 5664 5657 5649 5640 5631 5623 5614 5606 5597 5587 5577 5568 5562 5559
5699 5704 5708 5711 5713 5714 5716 5718 5720 5721 5722 5721 5721 5720 5718 5716 5713 5710 5707 5704 5700 5696 5692 5688 5683 5677 5672 5665 5659 5651 5643 5634 5624 5615 5607 5598 5589 5580 5569 5557 5544 5533 5527
5693 5698 5702 5704 5706 5708 5710 5712 5713 5714 5714 5714 5713 5711 5710 5707 5704 5701 5698 5695 5691 5687 5682 5677 5671 5665 5659 5653 5645 5637 5627 5618 5608 5599 5590 5581 5571 5561 5549 5536 5523 5506 5492
5688 5692 5695 5697 5699 5701 5704 5705 5706 5707 5706 5706 5705 5704 5701 5699 5696 5693 5690 5686 5682 5677 5672 5666 5660 5654 5647 5639 5631 5621 5611 5602 5592 5582 5573 5562 5551 5540 5527 5513 5498 5482 5461
5682 5686 5689 5691 5694 5696 5697 5699 5699 5699 5698 5698 5697 5696 5693 5690 5688 5685 5681 5677 5672 5667 5662 5655 5648 5642 5634 5625 5616 5606 5595 5586 5576 5565 5554 5543 5530 5517 5502 5486 5470 5453 5433
5677 5681 5684 5686 5689 5690 5691 5692 5692 5692 5691 5691 5690 5688 5685 5683 5680 5676 5672 5667 5662 5657 5650 5643 5636 5628 5620 5610 5600 5590 5580 5569 5558 5546 5534 5521 5507 5492 5475 5457 5438 5420 5401
5672 5675 5678 5681 5683 5684 5685 5685 5686 5685 5685 5684 5682 5680 5678 5675 5671 5667 5662 5657 5652 5645 5638 5631 5623 5614 5604 5594 5584 5574 5564 5552 5539 5526 5511 5496 5481 5463 5445 5426 5406 5386 5369
5668 5671 5673 5675 5677 5678 5678 5679 5679 5678 5678 5676 5674 5672 5669 5666 5661 5657 5652 5646 5640 5633 5626 5618 5608 5598 5588 5578 5568 5558 5547 5534 5520 5505 5489 5471 5453 5434 5413 5391 5372 5354 5342
5664 5666 5668 5669 5670 5671 5672 5672 5671 5671 5670 5668 5666 5664 5660 5656 5652 5647 5641 5635 5628 5620 5612 5603 5593 5582 5572 5562 5552 5540 5529 5515 5499 5483 5466 5447 5427 5405 5384 5363 5345 5330 5317
5660 5662 5663 5664 5664 5665 5665 5665 5664 5663 5662 5660 5658 5655 5651 5646 5641 5635 5629 5623 5615 5607 5597 5587 5577 5567 5557 5547 5535 5523 5510 5495 5477 5459 5441 5421 5399 5377 5358 5342 5327 5313 5299
5656 5657 5658 5658 5659 5659 5659 5658 5657 5656 5654 5652 5649 5645 5640 5635 5630 5624 5618 5610 5602 5592 5582 5572 5562 5552 5542 5531 5519 5506 5492 5475 5455 5434 5412 5393 5374 5354 5337 5321 5308 5294 5281
5651 5652 5652 5652 5653 5652 5652 5651 5650 5648 5646 5643 5639 5634 5630 5625 5619 5612 5605 5597 5588 5578 5568 5558 5548 5538 5527 5514 5501 5487 5472 5454 5433 5411 5388 5366 5350 5335 5318 5303 5290 5279 5269
5645 5645 5646 5646 5646 5646 5645 5644 5642 5640 5637 5633 5629 5625 5620 5614 5607 5600 5592 5583 5574 5565 5555 5545 5534 5522 5510 5496 5481 5465 5449 5432 5414 5392 5370 5349 5332 5317 5303 5290 5279 5270 5263
5639 5639 5640 5640 5640 5639 5638 5636 5634 5631 5628 5624 5620 5615 5609 5602 5595 5587 5578 5570 5562 5553 5544 5533 5521 5507 5493 5477 5459 5440 5420 5402 5386 5369 5353 5336 5319 5305 5293 5283 5274 5266 5260
5633 5633 5634 5633 5633 5632 5630 5628 5625 5622 5618 5614 5609 5604 5597 5590 5583 5575 5566 5558 5550 5541 5531 5520 5507 5491 5474 5457 5439 5419 5398 5378 5362 5348 5334 5320 5307 5296 5287 5279 5272 5266 5260
5626 5627 5626 5625 5624 5623 5621 5618 5615 5612 5608 5603 5598 5592 5585 5578 5570 5563 5555 5547 5538 5529 5518 5506 5493 5476 5457 5438 5419 5400 5381 5363 5348 5335 5321 5309 5298 5290 5283 5277 5271 5266 5260
5620 5620 5619 5618 5616 5614 5612 5609 5606 5602 5597 5592 5587 5580 5573 5566 5559 5552 5544 5534 5525 5515 5503 5491 5476 5459 5439 5420 5402 5384 5367 5353 5339 5326 5314 5303 5294 5287 5281 5276 5270 5264 5258
5614 5613 5612 5610 5608 5606 5603 5600 5596 5592 5587 5582 5576 5569 5563 5556 5548 5539 5530 5521 5510 5498 5486 5472 5456 5439 5422 5403 5384 5367 5354 5341 5329 5318 5309 5300 5293 5286 5279 5273 5268 5263 5258
5608 5607 5605 5603 5600 5598 5595 5591 5587 5582 5577 5571 5565 5559 5552 5545 5537 5528 5517 5505 5494 5480 5465 5449 5433 5416 5399 5383 5369 5355 5341 5330 5320 5312 5304 5298 5291 5285 5279 5273 5268 5263 5258